| time (UTC) | temp F | wind direction | speed knots | gust knots | rain 1hr in | rain 24hr in | rain mn in | humidity % | barometer mb |
| 20260510122846 | 69 | 67 | 0.0 | 0.9 | 0.00 | 0.00 | 0.00 | 99 | 1018.1 |
| 20260510122342 | 69 | 76 | 0.9 | 0.9 | 0.00 | 0.00 | 0.00 | 99 | 1018.1 |
| 20260510121839 | 69 | 32 | 0.0 | 0.0 | 0.00 | 0.00 | 0.00 | 99 | 1017.8 |
| 20260510121336 | 69 | 74 | 0.0 | 0.0 | 0.00 | 0.00 | 0.00 | 99 | 1017.8 |
| 20260510120833 | 69 | 80 | 0.0 | 0.0 | 0.00 | 0.00 | 0.00 | 99 | 1017.7 |
| 20260510120330 | 69 | 12 | 0.0 | 0.0 | 0.00 | 0.00 | 0.00 | 99 | 1017.7 |
| 20260510115826 | 69 | 73 | 0.0 | 0.0 | 0.00 | 0.00 | 0.00 | 99 | 1017.5 |
| 20260510115323 | 69 | 71 | 0.0 | 0.0 | 0.00 | 0.00 | 0.00 | 99 | 1017.4 |
| 20260510114819 | 68 | 66 | 1.7 | 1.7 | 0.00 | 0.00 | 0.00 | 99 | 1017.4 |
| 20260510114316 | 68 | 67 | 0.9 | 0.9 | 0.00 | 0.00 | 0.00 | 99 | 1017.2 |
| 20260510113811 | 68 | 79 | 0.0 | 0.0 | 0.00 | 0.00 | 0.00 | 99 | 1017.2 |
| 20260510113308 | 68 | 75 | 0.0 | 0.9 | 0.00 | 0.00 | 0.00 | 99 | 1016.9 |
| 20260510112805 | 68 | 82 | 0.0 | 0.0 | 0.00 | 0.00 | 0.00 | 99 | 1017.0 |
| 20260510112305 | 68 | 82 | 0.0 | 0.0 | 0.00 | 0.00 | 0.00 | 99 | 1017.1 |
| 20260510111757 | 68 | 82 | 0.0 | 0.0 | 0.00 | 0.00 | 0.00 | 99 | 1017.1 |
| 20260510111255 | 68 | 87 | 0.0 | 0.0 | 0.00 | 0.00 | 0.00 | 99 | 1016.8 |
| 20260510110754 | 68 | 77 | 0.0 | 0.0 | 0.00 | 0.00 | 0.00 | 99 | 1016.8 |
| 20260510110252 | 68 | 83 | 0.0 | 0.0 | 0.00 | 0.00 | 0.00 | 99 | 1016.8 |
| 20260510105752 | 68 | 90 | 0.0 | 0.0 | 0.00 | 0.00 | 0.00 | 99 | 1016.8 |
| 20260510105247 | 68 | 84 | 0.0 | 0.0 | 0.00 | 0.00 | 0.00 | 99 | 1016.6 |
| 20260510104744 | 68 | 82 | 0.0 | 0.0 | 0.00 | 0.00 | 0.00 | 99 | 1016.7 |
| 20260510104241 | 68 | 90 | 0.0 | 0.0 | 0.00 | 0.00 | 0.00 | 99 | 1016.5 |
| 20260510103737 | 68 | 90 | 0.0 | 0.0 | 0.00 | 0.00 | 0.00 | 99 | 1016.6 |
| 20260510103235 | 68 | 90 | 0.0 | 0.0 | 0.00 | 0.00 | 0.00 | 99 | 1016.4 |
| 20260510102734 | 68 | 90 | 0.0 | 0.0 | 0.00 | 0.00 | 0.00 | 99 | 1016.3 |
| 20260510102230 | 68 | 91 | 0.0 | 0.0 | 0.00 | 0.00 | 0.00 | 99 | 1016.1 |
| 20260510101728 | 67 | 84 | 0.0 | 0.0 | 0.00 | 0.00 | 0.00 | 99 | 1016.2 |
| 20260510101226 | 67 | 73 | 0.0 | 0.0 | 0.00 | 0.00 | 0.00 | 99 | 1015.8 |
| 20260510100722 | 67 | 83 | 0.0 | 0.0 | 0.00 | 0.00 | 0.00 | 99 | 1015.8 |
| 20260510100220 | 67 | 86 | 0.0 | 0.0 | 0.00 | 0.00 | 0.00 | 99 | 1015.9 |
| 20260510095715 | 68 | 86 | 0.0 | 0.0 | 0.00 | 0.00 | 0.00 | 99 | 1016.0 |
| 20260510095211 | 67 | 83 | 0.0 | 0.0 | 0.00 | 0.00 | 0.00 | 99 | 1016.1 |
| 20260510094709 | 67 | 85 | 0.0 | 0.0 | 0.00 | 0.00 | 0.00 | 99 | 1015.8 |
| 20260510094205 | 67 | 89 | 0.0 | 0.0 | 0.00 | 0.00 | 0.00 | 99 | 1015.6 |
| 20260510093701 | 67 | 90 | 0.0 | 0.0 | 0.00 | 0.00 | 0.00 | 99 | 1015.6 |
| 20260510093159 | 67 | 91 | 0.0 | 0.0 | 0.00 | 0.00 | 0.00 | 99 | 1015.6 |
| 20260510092655 | 67 | 90 | 0.0 | 0.0 | 0.00 | 0.00 | 0.00 | 99 | 1015.9 |
| 20260510092150 | 67 | 91 | 0.0 | 0.0 | 0.00 | 0.00 | 0.00 | 99 | 1015.9 |
| 20260510091646 | 67 | 91 | 0.0 | 0.0 | 0.00 | 0.00 | 0.00 | 99 | 1015.9 |
| 20260510091143 | 67 | 91 | 0.0 | 0.0 | 0.00 | 0.00 | 0.00 | 99 | 1015.4 |
| 20260510090640 | 67 | 91 | 0.0 | 0.0 | 0.00 | 0.00 | 0.00 | 99 | 1015.5 |
| 20260510090136 | 67 | 92 | 0.0 | 0.0 | 0.00 | 0.00 | 0.00 | 99 | 1015.4 |
| 20260510085631 | 67 | 91 | 0.0 | 0.0 | 0.00 | 0.00 | 0.00 | 99 | 1015.6 |
| 20260510085126 | 67 | 87 | 0.0 | 0.0 | 0.00 | 0.00 | 0.00 | 99 | 1015.4 |
| 20260510084624 | 67 | 83 | 0.0 | 0.0 | 0.00 | 0.00 | 0.00 | 99 | 1015.3 |
| 20260510084121 | 67 | 85 | 0.0 | 0.0 | 0.00 | 0.00 | 0.00 | 99 | 1015.1 |
| 20260510083617 | 67 | 82 | 0.0 | 0.0 | 0.00 | 0.00 | 0.00 | 99 | 1015.1 |
| 20260510083113 | 67 | 81 | 0.0 | 0.0 | 0.00 | 0.00 | 0.00 | 99 | 1014.9 |
| 20260510082610 | 68 | 85 | 0.0 | 0.0 | 0.00 | 0.00 | 0.00 | 99 | 1015.0 |
| 20260510082105 | 68 | 85 | 0.0 | 0.0 | 0.00 | 0.00 | 0.00 | 99 | 1015.0 |
| 20260510081600 | 68 | 88 | 0.0 | 0.0 | 0.00 | 0.00 | 0.00 | 99 | 1015.0 |
| 20260510081056 | 68 | 93 | 0.0 | 0.0 | 0.00 | 0.00 | 0.00 | 99 | 1015.0 |
| 20260510080555 | 68 | 91 | 0.0 | 0.0 | 0.00 | 0.00 | 0.00 | 99 | 1015.1 |
| 20260510080053 | 68 | 85 | 0.0 | 0.0 | 0.00 | 0.00 | 0.00 | 99 | 1015.2 |
| 20260510075550 | 68 | 86 | 0.0 | 0.0 | 0.00 | 0.00 | 0.00 | 99 | 1015.2 |
| 20260510075046 | 68 | 85 | 0.0 | 0.0 | 0.00 | 0.00 | 0.00 | 99 | 1014.9 |
| 20260510074544 | 68 | 83 | 0.0 | 0.0 | 0.00 | 0.00 | 0.00 | 99 | 1015.1 |
| 20260510074039 | 68 | 83 | 0.0 | 0.0 | 0.00 | 0.00 | 0.00 | 99 | 1014.9 |
| 20260510073536 | 68 | 83 | 0.0 | 0.0 | 0.00 | 0.00 | 0.00 | 99 | 1014.9 |
| 20260510073033 | 68 | 83 | 0.0 | 0.0 | 0.00 | 0.00 | 0.00 | 99 | 1014.9 |
| 20260510072529 | 68 | 85 | 0.0 | 0.0 | 0.00 | 0.00 | 0.00 | 99 | 1015.0 |
| 20260510072025 | 68 | 79 | 0.0 | 0.0 | 0.00 | 0.00 | 0.00 | 99 | 1015.2 |
| 20260510071521 | 68 | 82 | 0.0 | 0.0 | 0.00 | 0.00 | 0.00 | 99 | 1015.1 |
| 20260510071020 | 68 | 87 | 0.0 | 0.0 | 0.00 | 0.00 | 0.00 | 99 | 1015.0 |
| 20260510070516 | 68 | 87 | 0.0 | 0.0 | 0.00 | 0.00 | 0.00 | 99 | 1015.2 |
| 20260510070013 | 68 | 89 | 0.0 | 0.0 | 0.00 | 0.00 | 0.00 | 99 | 1014.9 |
| 20260510065509 | 68 | 92 | 0.0 | 0.0 | 0.00 | 0.00 | 0.00 | 99 | 1014.7 |
| 20260510065005 | 68 | 87 | 0.0 | 0.0 | 0.00 | 0.00 | 0.00 | 99 | 1015.1 |
| 20260510064503 | 68 | 78 | 0.0 | 0.0 | 0.00 | 0.00 | 0.00 | 99 | 1015.2 |
| 20260510063959 | 68 | 90 | 0.0 | 0.0 | 0.00 | 0.00 | 0.00 | 99 | 1015.2 |
| 20260510063455 | 68 | 82 | 0.0 | 0.0 | 0.00 | 0.00 | 0.00 | 99 | 1015.1 |
| 20260510062953 | 68 | 93 | 0.0 | 0.0 | 0.00 | 0.00 | 0.00 | 99 | 1015.5 |
| 20260510062449 | 68 | 83 | 0.0 | 0.0 | 0.00 | 0.00 | 0.00 | 99 | 1015.1 |
| 20260510061944 | 68 | 80 | 0.0 | 0.0 | 0.00 | 0.00 | 0.00 | 99 | 1015.2 |
| 20260510061441 | 68 | 89 | 0.0 | 0.0 | 0.00 | 0.00 | 0.00 | 99 | 1015.5 |
| 20260510060937 | 68 | 93 | 0.0 | 0.0 | 0.00 | 0.00 | 0.00 | 99 | 1015.3 |
| 20260510060434 | 68 | 84 | 0.0 | 0.0 | 0.00 | 0.00 | 0.00 | 99 | 1015.5 |
| 20260510055930 | 68 | 84 | 0.0 | 0.0 | 0.00 | 0.00 | 0.00 | 99 | 1015.3 |
| 20260510055426 | 68 | 84 | 0.0 | 0.0 | 0.00 | 0.00 | 0.00 | 99 | 1015.2 |
| 20260510054924 | 68 | 78 | 0.0 | 0.0 | 0.00 | 0.00 | 0.00 | 99 | 1015.5 |
| 20260510054420 | 68 | 56 | 0.0 | 0.0 | 0.00 | 0.00 | 0.00 | 99 | 1015.5 |
| 20260510053915 | 68 | 81 | 0.0 | 0.0 | 0.00 | 0.00 | 0.00 | 99 | 1015.7 |
| 20260510053411 | 68 | 108 | 0.0 | 0.9 | 0.00 | 0.00 | 0.00 | 99 | 1015.7 |
| 20260510052907 | 68 | 94 | 0.0 | 0.0 | 0.00 | 0.00 | 0.00 | 99 | 1015.3 |
| 20260510052403 | 68 | 102 | 0.0 | 0.9 | 0.00 | 0.00 | 0.00 | 99 | 1015.4 |
| 20260510051859 | 68 | 78 | 0.0 | 0.0 | 0.00 | 0.00 | 0.00 | 99 | 1015.6 |
| 20260510051356 | 68 | 127 | 1.7 | 1.7 | 0.00 | 0.00 | 0.00 | 99 | 1015.7 |
| 20260510050853 | 68 | 193 | 1.7 | 1.7 | 0.00 | 0.00 | 0.00 | 99 | 1016.0 |
| 20260510050349 | 68 | 106 | 0.0 | 0.9 | 0.00 | 0.00 | 0.00 | 99 | 1015.5 |
| 20260510045846 | 68 | 180 | 1.7 | 2.6 | 0.00 | 0.00 | 0.00 | 99 | 1015.7 |
| 20260510045343 | 68 | 120 | 0.9 | 0.9 | 0.00 | 0.00 | 0.00 | 99 | 1015.8 |
| 20260510044840 | 68 | 95 | 0.0 | 0.0 | 0.00 | 0.00 | 0.00 | 99 | 1015.8 |
| 20260510044337 | 68 | 92 | 0.0 | 0.0 | 0.00 | 0.00 | 0.00 | 99 | 1015.9 |
| 20260510043834 | 68 | 117 | 0.0 | 0.0 | 0.00 | 0.00 | 0.00 | 99 | 1015.8 |
| 20260510043330 | 68 | 93 | 0.0 | 0.0 | 0.00 | 0.00 | 0.00 | 99 | 1015.8 |
| 20260510042828 | 68 | 105 | 0.0 | 0.0 | 0.00 | 0.00 | 0.00 | 99 | 1016.2 |
| 20260510042323 | 68 | 85 | 0.0 | 0.0 | 0.00 | 0.00 | 0.00 | 99 | 1016.0 |
| 20260510041820 | 68 | 182 | 1.7 | 2.6 | 0.00 | 0.00 | 0.00 | 99 | 1016.3 |
| 20260510041317 | 68 | 90 | 0.0 | 0.0 | 0.00 | 0.00 | 0.00 | 99 | 1016.3 |
| 20260510040814 | 68 | 90 | 0.9 | 0.9 | 0.00 | 0.00 | 0.00 | 99 | 1016.2 |
| 20260510040311 | 68 | 98 | 0.0 | 0.0 | 0.00 | 0.00 | 0.00 | 99 | 1016.1 |
| 20260510035806 | 68 | 106 | 0.9 | 0.9 | 0.00 | 0.11 | 0.11 | 99 | 1016.1 |
| 20260510035306 | 68 | 93 | 0.9 | 0.9 | 0.00 | 0.11 | 0.11 | 99 | 1016.3 |
| 20260510034758 | 68 | 92 | 0.0 | 0.0 | 0.00 | 0.11 | 0.11 | 99 | 1015.9 |
| 20260510034256 | 68 | 88 | 0.0 | 0.0 | 0.00 | 0.11 | 0.11 | 99 | 1016.0 |
| 20260510033752 | 68 | 90 | 0.0 | 0.0 | 0.00 | 0.11 | 0.11 | 99 | 1016.2 |
| 20260510033250 | 68 | 101 | 0.0 | 0.0 | 0.00 | 0.11 | 0.11 | 99 | 1016.4 |
| 20260510032746 | 68 | 94 | 0.0 | 0.0 | 0.00 | 0.11 | 0.11 | 99 | 1016.0 |
| 20260510032242 | 68 | 94 | 0.0 | 0.0 | 0.00 | 0.11 | 0.11 | 99 | 1016.0 |
| 20260510031738 | 68 | 90 | 0.0 | 0.0 | 0.00 | 0.11 | 0.11 | 99 | 1016.3 |
| 20260510031233 | 68 | 89 | 0.0 | 0.0 | 0.00 | 0.11 | 0.11 | 99 | 1016.1 |
| 20260510030733 | 68 | 85 | 0.0 | 0.0 | 0.00 | 0.11 | 0.11 | 99 | 1016.1 |
| 20260510030231 | 68 | 82 | 0.0 | 0.0 | 0.00 | 0.11 | 0.11 | 99 | 1015.9 |
| 20260510025728 | 68 | 87 | 0.0 | 0.0 | 0.00 | 0.11 | 0.11 | 99 | 1016.1 |
| 20260510025225 | 68 | 87 | 0.0 | 0.0 | 0.00 | 0.11 | 0.11 | 99 | 1016.2 |
| 20260510024722 | 68 | 87 | 0.0 | 0.0 | 0.00 | 0.11 | 0.11 | 99 | 1016.3 |
| 20260510024219 | 68 | 87 | 0.0 | 0.0 | 0.00 | 0.11 | 0.11 | 99 | 1016.1 |
| 20260510023714 | 69 | 89 | 0.0 | 0.0 | 0.00 | 0.11 | 0.11 | 99 | 1016.3 |
| 20260510023212 | 69 | 90 | 0.0 | 0.0 | 0.00 | 0.11 | 0.11 | 99 | 1016.3 |
| 20260510022708 | 69 | 91 | 0.0 | 0.0 | 0.00 | 0.11 | 0.11 | 99 | 1016.2 |
| 20260510022202 | 69 | 95 | 0.0 | 0.0 | 0.00 | 0.11 | 0.11 | 99 | 1016.1 |
| 20260510021658 | 69 | 86 | 0.0 | 0.0 | 0.00 | 0.11 | 0.11 | 99 | 1015.7 |
| 20260510021155 | 69 | 85 | 0.0 | 0.0 | 0.00 | 0.11 | 0.11 | 99 | 1016.0 |
| 20260510020649 | 69 | 93 | 0.0 | 0.0 | 0.00 | 0.11 | 0.11 | 99 | 1016.1 |
| 20260510020145 | 69 | 100 | 0.0 | 0.0 | 0.00 | 0.11 | 0.11 | 99 | 1015.9 |
| 20260510015641 | 69 | 94 | 0.0 | 0.0 | 0.00 | 0.11 | 0.11 | 99 | 1015.8 |
| 20260510015138 | 69 | 90 | 0.0 | 0.0 | 0.00 | 0.11 | 0.11 | 99 | 1015.7 |
| 20260510014638 | 69 | 95 | 0.0 | 0.0 | 0.00 | 0.11 | 0.11 | 99 | 1015.8 |
| 20260510014136 | 69 | 89 | 0.0 | 0.0 | 0.00 | 0.11 | 0.11 | 99 | 1015.6 |
| 20260510013631 | 69 | 90 | 0.0 | 0.0 | 0.00 | 0.11 | 0.11 | 99 | 1015.7 |
| 20260510013126 | 69 | 83 | 0.0 | 0.0 | 0.00 | 0.11 | 0.11 | 99 | 1015.6 |
| 20260510012626 | 69 | 93 | 0.0 | 0.0 | 0.00 | 0.11 | 0.11 | 99 | 1015.5 |
| 20260510012123 | 69 | 116 | 0.0 | 0.0 | 0.00 | 0.11 | 0.11 | 99 | 1015.6 |
| 20260510011622 | 69 | 76 | 0.0 | 0.0 | 0.00 | 0.11 | 0.11 | 99 | 1015.2 |
| 20260510011118 | 69 | 81 | 0.0 | 0.0 | 0.00 | 0.11 | 0.11 | 99 | 1015.3 |
| 20260510010615 | 69 | 80 | 0.0 | 0.0 | 0.00 | 0.11 | 0.11 | 99 | 1015.4 |
| 20260510010113 | 69 | 81 | 0.0 | 0.0 | 0.00 | 0.11 | 0.11 | 99 | 1015.2 |
| 20260510005608 | 69 | 85 | 0.0 | 0.0 | 0.00 | 0.11 | 0.11 | 99 | 1015.4 |
| 20260510005105 | 69 | 86 | 0.0 | 0.0 | 0.00 | 0.11 | 0.11 | 99 | 1015.3 |
| 20260510004603 | 69 | 86 | 0.0 | 0.0 | 0.00 | 0.11 | 0.11 | 99 | 1015.0 |
| 20260510004101 | 69 | 73 | 0.0 | 0.0 | 0.00 | 0.11 | 0.11 | 99 | 1015.1 |
| 20260510003557 | 69 | 72 | 0.0 | 0.0 | 0.00 | 0.11 | 0.11 | 99 | 1015.1 |
| 20260510003053 | 69 | 87 | 0.0 | 0.0 | 0.00 | 0.11 | 0.11 | 99 | 1015.2 |
| 20260510002548 | 69 | 81 | 0.0 | 0.0 | 0.00 | 0.11 | 0.11 | 99 | 1015.1 |
| 20260510002046 | 69 | 110 | 0.0 | 0.9 | 0.00 | 0.11 | 0.11 | 99 | 1015.1 |
| 20260510001543 | 69 | 87 | 0.0 | 0.0 | 0.00 | 0.11 | 0.11 | 99 | 1015.0 |
| 20260510001042 | 69 | 84 | 0.0 | 0.0 | 0.00 | 0.11 | 0.11 | 99 | 1015.0 |
| 20260510000536 | 69 | 88 | 0.0 | 0.0 | 0.07 | 0.11 | 0.11 | 99 | 1015.0 |
| 20260510000033 | 69 | 90 | 0.0 | 0.0 | 0.07 | 0.11 | 0.11 | 99 | 1015.1 |
| 20260509235530 | 69 | 111 | 0.0 | 0.0 | 0.00 | 0.10 | 0.10 | 99 | 1015.0 |
| 20260509235027 | 69 | 93 | 0.0 | 0.0 | 0.00 | 0.10 | 0.10 | 99 | 1014.9 |
| 20260509234523 | 69 | 95 | 0.0 | 0.0 | 0.00 | 0.10 | 0.10 | 99 | 1014.6 |
| 20260509234021 | 69 | 90 | 0.0 | 0.0 | 0.00 | 0.10 | 0.10 | 99 | 1014.9 |
| 20260509233518 | 69 | 94 | 0.0 | 0.0 | 0.00 | 0.10 | 0.10 | 99 | 1014.9 |
| 20260509233015 | 70 | 94 | 0.0 | 0.0 | 0.00 | 0.10 | 0.10 | 99 | 1015.2 |
| 20260509232512 | 70 | 94 | 0.0 | 0.0 | 0.00 | 0.10 | 0.10 | 99 | 1015.4 |
| 20260509232008 | 70 | 94 | 0.0 | 0.0 | 0.00 | 0.10 | 0.10 | 99 | 1015.4 |
| 20260509231505 | 70 | 92 | 0.0 | 0.0 | 0.00 | 0.10 | 0.10 | 99 | 1015.3 |
| 20260509231002 | 70 | 83 | 0.0 | 0.0 | 0.00 | 0.10 | 0.10 | 99 | 1015.4 |
| 20260509230459 | 70 | 93 | 0.0 | 0.0 | 0.00 | 0.10 | 0.10 | 99 | 1015.6 |
| 20260509225955 | 70 | 90 | 0.0 | 0.0 | 0.00 | 0.10 | 0.10 | 99 | 1015.5 |
| 20260509225452 | 70 | 94 | 0.0 | 0.0 | 0.00 | 0.10 | 0.10 | 99 | 1015.6 |
| 20260509224947 | 70 | 60 | 0.0 | 0.0 | 0.05 | 0.10 | 0.10 | 99 | 1015.5 |
| 20260509224443 | 70 | 84 | 0.0 | 0.0 | 0.12 | 0.10 | 0.10 | 99 | 1015.7 |
| 20260509223940 | 70 | 93 | 0.0 | 0.0 | 0.07 | 0.09 | 0.09 | 99 | 1015.6 |
| 20260509223437 | 70 | 94 | 0.0 | 0.0 | 0.05 | 0.08 | 0.08 | 99 | 1015.8 |
| 20260509222935 | 70 | 95 | 0.0 | 0.0 | 0.05 | 0.08 | 0.08 | 99 | 1015.9 |
| 20260509222429 | 70 | 90 | 0.0 | 0.0 | 0.00 | 0.07 | 0.07 | 99 | 1015.6 |
| 20260509221926 | 70 | 92 | 0.0 | 0.0 | 0.00 | 0.07 | 0.07 | 99 | 1015.6 |
| 20260509221422 | 70 | 102 | 0.0 | 0.0 | 0.00 | 0.07 | 0.07 | 99 | 1015.4 |
| 20260509220918 | 70 | 109 | 0.0 | 0.0 | 0.00 | 0.07 | 0.07 | 99 | 1015.6 |
| 20260509220414 | 70 | 82 | 0.0 | 0.0 | 0.00 | 0.07 | 0.07 | 99 | 1015.6 |
| 20260509215910 | 70 | 95 | 0.0 | 0.0 | 0.00 | 0.07 | 0.07 | 99 | 1015.7 |
| 20260509215406 | 70 | 96 | 0.0 | 0.0 | 0.00 | 0.07 | 0.07 | 99 | 1015.9 |
| 20260509214904 | 70 | 89 | 0.0 | 0.0 | 0.00 | 0.07 | 0.07 | 99 | 1015.6 |
| 20260509214401 | 70 | 85 | 0.0 | 0.0 | 0.00 | 0.07 | 0.07 | 99 | 1015.6 |
| 20260509213858 | 70 | 115 | 0.0 | 0.0 | 0.00 | 0.07 | 0.07 | 99 | 1015.4 |
| 20260509213353 | 71 | 172 | 0.0 | 0.0 | 0.00 | 0.07 | 0.07 | 99 | 1015.4 |
| 20260509212851 | 71 | 82 | 0.0 | 0.0 | 0.00 | 0.07 | 0.07 | 99 | 1015.3 |
| 20260509212348 | 71 | 112 | 0.0 | 0.0 | 0.00 | 0.07 | 0.07 | 99 | 1015.0 |
| 20260509211844 | 70 | 86 | 0.0 | 0.0 | 0.00 | 0.07 | 0.07 | 99 | 1015.1 |
| 20260509211340 | 71 | 65 | 0.9 | 0.9 | 0.00 | 0.07 | 0.07 | 99 | 1015.0 |
| 20260509210837 | 71 | 87 | 0.0 | 0.0 | 0.07 | 0.07 | 0.07 | 99 | 1015.1 |
| 20260509210335 | 71 | 81 | 0.0 | 0.0 | 0.31 | 0.07 | 0.07 | 99 | 1014.9 |
| 20260509205834 | 71 | 82 | 0.0 | 0.9 | 0.24 | 0.06 | 0.06 | 98 | 1015.1 |
| 20260509205329 | 71 | 77 | 0.9 | 0.9 | 0.00 | 0.02 | 0.02 | 97 | 1015.4 |
| 20260509204826 | 71 | 100 | 0.9 | 0.9 | 0.00 | 0.02 | 0.02 | 97 | 1014.9 |
| 20260509204322 | 71 | 87 | 0.0 | 0.9 | 0.07 | 0.02 | 0.02 | 96 | 1015.0 |
| 20260509203818 | 71 | 287 | 1.7 | 1.7 | 0.07 | 0.02 | 0.02 | 95 | 1014.9 |
| 20260509203315 | 71 | 114 | 0.9 | 1.7 | 0.00 | 0.01 | 0.01 | 94 | 1015.0 |
| 20260509202812 | 71 | 73 | 2.6 | 4.3 | 0.00 | 0.01 | 0.01 | 94 | 1015.1 |
| 20260509202308 | 72 | 17 | 3.5 | 5.2 | 0.00 | 0.01 | 0.01 | 93 | 1014.9 |
| 20260509201807 | 72 | 356 | 3.5 | 4.3 | 0.00 | 0.01 | 0.01 | 93 | 1014.9 |
| 20260509201304 | 71 | 62 | 2.6 | 2.6 | 0.00 | 0.01 | 0.01 | 94 | 1014.9 |
| 20260509200800 | 71 | 34 | 2.6 | 4.3 | 0.00 | 0.01 | 0.01 | 95 | 1015.1 |
| 20260509200256 | 71 | 64 | 0.0 | 0.9 | 0.00 | 0.01 | 0.01 | 94 | 1015.3 |
| 20260509195752 | 71 | 74 | 0.0 | 0.0 | 0.00 | 0.01 | 0.01 | 96 | 1015.2 |
| 20260509195248 | 70 | 34 | 1.7 | 1.7 | 0.00 | 0.01 | 0.01 | 96 | 1015.2 |
| 20260509194748 | 70 | 41 | 1.7 | 1.7 | 0.00 | 0.01 | 0.01 | 96 | 1015.3 |
| 20260509194244 | 70 | 70 | 0.9 | 0.9 | 0.00 | 0.01 | 0.01 | 96 | 1015.2 |
| 20260509193741 | 70 | 23 | 0.9 | 1.7 | 0.00 | 0.01 | 0.01 | 96 | 1015.5 |
| 20260509193241 | 70 | 41 | 0.9 | 1.7 | 0.00 | 0.01 | 0.01 | 96 | 1015.3 |
| 20260509192737 | 70 | 70 | 3.5 | 5.2 | 0.00 | 0.01 | 0.01 | 96 | 1015.5 |
| 20260509192232 | 70 | 80 | 0.0 | 0.0 | 0.00 | 0.01 | 0.01 | 96 | 1015.7 |
| 20260509191728 | 70 | 23 | 5.2 | 6.1 | 0.00 | 0.01 | 0.01 | 95 | 1015.8 |
| 20260509191225 | 71 | 325 | 2.6 | 2.6 | 0.00 | 0.01 | 0.01 | 95 | 1015.5 |
| 20260509190721 | 70 | 90 | 0.9 | 1.7 | 0.00 | 0.01 | 0.01 | 96 | 1015.7 |
| 20260509190218 | 70 | 13 | 4.3 | 6.1 | 0.00 | 0.01 | 0.01 | 97 | 1015.9 |
| 20260509185715 | 69 | 6 | 4.3 | 6.1 | 0.00 | 0.01 | 0.01 | 98 | 1015.7 |
| 20260509185212 | 69 | 349 | 4.3 | 5.2 | 0.00 | 0.01 | 0.01 | 98 | 1016.1 |
| 20260509184709 | 69 | 30 | 7.8 | 12.2 | 0.00 | 0.01 | 0.01 | 97 | 1015.8 |
| 20260509184206 | 70 | 125 | 3.5 | 5.2 | 0.00 | 0.01 | 0.01 | 98 | 1015.6 |
| 20260509183702 | 70 | 288 | 2.6 | 5.2 | 0.00 | 0.01 | 0.01 | 98 | 1015.9 |
| 20260509183158 | 70 | 335 | 3.5 | 5.2 | 0.00 | 0.01 | 0.01 | 97 | 1015.6 |
| 20260509182653 | 70 | 313 | 5.2 | 6.1 | 0.05 | 0.01 | 0.01 | 97 | 1015.9 |
| 20260509182151 | 71 | 39 | 2.6 | 5.2 | 0.05 | 0.01 | 0.01 | 97 | 1015.8 |
| 20260509181649 | 74 | 281 | 3.5 | 5.2 | 0.00 | 0.00 | 0.00 | 94 | 1015.9 |
| 20260509181146 | 78 | 201 | 0.9 | 1.7 | 0.00 | 0.00 | 0.00 | 92 | 1015.5 |
| 20260509180642 | 78 | 230 | 0.9 | 1.7 | 0.00 | 0.00 | 0.00 | 94 | 1015.1 |
| 20260509180139 | 78 | 160 | 2.6 | 2.6 | 0.00 | 0.00 | 0.00 | 93 | 1015.0 |
| 20260509175635 | 78 | 105 | 1.7 | 1.7 | 0.00 | 0.00 | 0.00 | 93 | 1015.0 |
| 20260509175132 | 78 | 196 | 2.6 | 4.3 | 0.00 | 0.00 | 0.00 | 94 | 1014.9 |
| 20260509174628 | 79 | 165 | 1.7 | 1.7 | 0.00 | 0.00 | 0.00 | 93 | 1015.0 |
| 20260509174123 | 79 | 68 | 0.0 | 0.9 | 0.00 | 0.00 | 0.00 | 92 | 1015.1 |
| 20260509173619 | 80 | 42 | 1.7 | 1.7 | 0.00 | 0.00 | 0.00 | 90 | 1015.0 |
| 20260509173115 | 80 | 273 | 1.7 | 2.6 | 0.00 | 0.00 | 0.00 | 89 | 1015.2 |
| 20260509172612 | 80 | 288 | 0.9 | 1.7 | 0.00 | 0.00 | 0.00 | 89 | 1014.9 |
| 20260509172108 | 79 | 113 | 1.7 | 2.6 | 0.00 | 0.00 | 0.00 | 90 | 1015.0 |
| 20260509171604 | 79 | 186 | 2.6 | 2.6 | 0.00 | 0.00 | 0.00 | 89 | 1015.2 |
| 20260509171100 | 80 | 100 | 0.9 | 0.9 | 0.00 | 0.00 | 0.00 | 88 | 1015.3 |
| 20260509170556 | 80 | 88 | 0.0 | 0.0 | 0.00 | 0.00 | 0.00 | 88 | 1015.3 |
| 20260509170052 | 79 | 131 | 0.9 | 0.9 | 0.00 | 0.00 | 0.00 | 89 | 1015.5 |
| 20260509165551 | 80 | 96 | 0.0 | 0.0 | 0.00 | 0.00 | 0.00 | 88 | 1015.4 |
| 20260509165046 | 80 | 76 | 0.0 | 0.9 | 0.00 | 0.00 | 0.00 | 88 | 1015.6 |
| 20260509164543 | 79 | 103 | 0.0 | 0.9 | 0.00 | 0.00 | 0.00 | 89 | 1015.5 |
| 20260509164043 | 79 | 63 | 0.0 | 0.0 | 0.00 | 0.00 | 0.00 | 89 | 1015.6 |
| 20260509163542 | 79 | 76 | 0.9 | 1.7 | 0.00 | 0.00 | 0.00 | 89 | 1015.6 |
| 20260509163037 | 79 | 123 | 0.0 | 0.0 | 0.00 | 0.00 | 0.00 | 90 | 1015.4 |
| 20260509162535 | 78 | 91 | 0.9 | 1.7 | 0.00 | 0.00 | 0.00 | 90 | 1015.5 |
| 20260509162030 | 78 | 31 | 0.9 | 1.7 | 0.00 | 0.00 | 0.00 | 90 | 1015.5 |
| 20260509161527 | 78 | 126 | 0.9 | 1.7 | 0.00 | 0.00 | 0.00 | 91 | 1015.6 |
| 20260509161022 | 78 | 175 | 0.0 | 0.9 | 0.00 | 0.00 | 0.00 | 90 | 1015.8 |
| 20260509160518 | 78 | 97 | 0.9 | 0.9 | 0.00 | 0.00 | 0.00 | 91 | 1015.6 |
| 20260509160014 | 78 | 190 | 1.7 | 1.7 | 0.00 | 0.00 | 0.00 | 90 | 1015.6 |
| 20260509155510 | 78 | 145 | 0.0 | 0.9 | 0.00 | 0.00 | 0.00 | 91 | 1015.8 |
| 20260509155006 | 78 | 95 | 0.0 | 0.9 | 0.00 | 0.00 | 0.00 | 91 | 1015.6 |
| 20260509154503 | 79 | 35 | 0.9 | 0.9 | 0.00 | 0.00 | 0.00 | 91 | 1015.7 |
| 20260509154000 | 78 | 85 | 0.0 | 0.0 | 0.00 | 0.00 | 0.00 | 91 | 1015.6 |
| 20260509153457 | 77 | 74 | 0.0 | 0.9 | 0.00 | 0.00 | 0.00 | 92 | 1015.2 |
| 20260509152954 | 77 | 33 | 0.9 | 1.7 | 0.00 | 0.00 | 0.00 | 93 | 1015.4 |
| 20260509152449 | 76 | 88 | 0.0 | 0.0 | 0.00 | 0.00 | 0.00 | 94 | 1015.5 |
| 20260509151946 | 75 | 325 | 1.7 | 1.7 | 0.00 | 0.00 | 0.00 | 95 | 1015.7 |
| 20260509151443 | 75 | 78 | 0.0 | 0.0 | 0.00 | 0.00 | 0.00 | 96 | 1015.6 |
| 20260509150941 | 75 | 94 | 0.0 | 0.0 | 0.00 | 0.00 | 0.00 | 98 | 1015.3 |
| 20260509150438 | 74 | 81 | 0.0 | 0.9 | 0.00 | 0.00 | 0.00 | 97 | 1015.5 |
| 20260509145936 | 74 | 123 | 0.9 | 0.9 | 0.00 | 0.00 | 0.00 | 98 | 1015.1 |
| 20260509145431 | 73 | 72 | 0.9 | 1.7 | 0.00 | 0.00 | 0.00 | 99 | 1015.2 |
| 20260509144927 | 73 | 95 | 0.9 | 0.9 | 0.00 | 0.00 | 0.00 | 99 | 1015.3 |
| 20260509144424 | 73 | 100 | 0.9 | 0.9 | 0.00 | 0.00 | 0.00 | 99 | 1015.4 |
| 20260509143921 | 73 | 89 | 0.0 | 0.0 | 0.00 | 0.00 | 0.00 | 99 | 1015.2 |
| 20260509143418 | 73 | 40 | 0.9 | 0.9 | 0.00 | 0.00 | 0.00 | 99 | 1015.2 |
| 20260509142914 | 73 | 64 | 0.9 | 0.9 | 0.00 | 0.00 | 0.00 | 99 | 1015.4 |
| 20260509142411 | 73 | 91 | 0.0 | 0.0 | 0.00 | 0.00 | 0.00 | 99 | 1015.6 |
| 20260509141906 | 72 | 137 | 0.9 | 1.7 | 0.00 | 0.00 | 0.00 | 99 | 1015.5 |
| 20260509141404 | 72 | 161 | 0.9 | 0.9 | 0.00 | 0.00 | 0.00 | 99 | 1015.7 |
| 20260509140900 | 72 | 94 | 0.0 | 0.0 | 0.00 | 0.00 | 0.00 | 99 | 1015.8 |
| 20260509140357 | 71 | 102 | 0.0 | 0.9 | 0.00 | 0.00 | 0.00 | 99 | 1015.4 |
| 20260509135855 | 71 | 124 | 0.9 | 0.9 | 0.00 | 0.00 | 0.00 | 99 | 1015.8 |
| 20260509135352 | 71 | 89 | 0.0 | 0.0 | 0.00 | 0.00 | 0.00 | 99 | 1015.5 |
| 20260509134849 | 71 | 92 | 0.0 | 0.0 | 0.00 | 0.00 | 0.00 | 99 | 1015.5 |
| 20260509134347 | 71 | 88 | 0.0 | 0.0 | 0.00 | 0.00 | 0.00 | 99 | 1015.6 |
| 20260509133843 | 71 | 88 | 0.0 | 0.0 | 0.00 | 0.00 | 0.00 | 99 | 1015.6 |
| 20260509133340 | 71 | 86 | 0.0 | 0.0 | 0.00 | 0.00 | 0.00 | 99 | 1016.0 |
| 20260509132839 | 71 | 114 | 0.9 | 1.7 | 0.00 | 0.00 | 0.00 | 99 | 1015.7 |
| 20260509132337 | 71 | 93 | 0.0 | 0.0 | 0.00 | 0.00 | 0.00 | 99 | 1015.8 |
| 20260509131833 | 71 | 135 | 0.9 | 0.9 | 0.00 | 0.00 | 0.00 | 99 | 1015.4 |
| 20260509131330 | 71 | 105 | 0.9 | 0.9 | 0.00 | 0.00 | 0.00 | 99 | 1015.4 |
| 20260509130827 | 71 | 335 | 0.0 | 0.0 | 0.00 | 0.00 | 0.00 | 99 | 1015.1 |
| 20260509130322 | 71 | 107 | 0.9 | 0.9 | 0.00 | 0.00 | 0.00 | 99 | 1015.2 |
| 20260509125819 | 70 | 79 | 0.9 | 0.9 | 0.00 | 0.00 | 0.00 | 99 | 1015.0 |
| 20260509125316 | 70 | 102 | 0.9 | 0.9 | 0.00 | 0.00 | 0.00 | 99 | 1015.0 |
| 20260509124812 | 70 | 94 | 0.0 | 0.0 | 0.00 | 0.00 | 0.00 | 99 | 1015.1 |
| 20260509124309 | 70 | 94 | 0.0 | 0.0 | 0.00 | 0.00 | 0.00 | 99 | 1015.2 |
| 20260509123808 | 71 | 128 | 0.0 | 0.9 | 0.00 | 0.00 | 0.00 | 99 | 1015.1 |
| 20260509123304 | 70 | 77 | 0.0 | 0.0 | 0.00 | 0.00 | 0.00 | 99 | 1015.1 |